This demonstration page uses our WeatherBlox Daily Observations layout. Learn more.

Left ArrowRight Arrow

38.20091, -84.87328

Hourly Observations for April 24, 2022

Temp ( °F °C ) Dew Point ( °F °C ) Humidity (%) Winds ( mph kmh ) Pressure ( in mb ) Visibility ( mi km ) Precip ( " mm )
12:53 am 00:53 Clear 69 20.6 50 10 51 51 S 5 7 30.04 1017 10 16 0.00 0.00
1:53 am 01:53 Clear 68 20 50 10 53 53 S 6 9 30.04 1017 10 16 0.00 0.00
2:53 am 02:53 Clear 68 20 51 10.6 55 55 S 7 11 30.04 1017 10 16 0.00 0.00
3:53 am 03:53 Clear 67 19.4 52 11.1 59 59 S 7 11 30.05 1018 10 16 0.00 0.00
4:53 am 04:53 Clear 67 19.4 53 11.7 61 61 S 8 13 30.06 1018 10 16 0.00 0.00
5:53 am 05:53 Clear 67 19.4 53 11.7 61 61 S 8 13 30.06 1018 10 16 0.00 0.00
6:53 am 06:53 Sunny 67 19.4 53 11.7 61 61 S 7 11 30.08 1019 10 16 0.00 0.00
7:53 am 07:53 Sunny 68 20 54 12.2 61 61 S 8 13 30.09 1019 10 16 0.00 0.00
8:53 am 08:53 Sunny 70 21.1 55 12.8 59 59 S 10 17 30.11 1020 10 16 0.00 0.00
9:53 am 09:53 Sunny 74 23.3 55 12.8 52 52 SSW 15 24 30.09 1019 10 16 0.00 0.00
10:53 am 10:53 Sunny 76 24.4 56 13.3 50 50 SW 17 28 30.09 1019 10 16 0.00 0.00
11:53 am 11:53 Sunny 78 25.6 57 13.9 48 48 SW 17 28 30.07 1018 10 16 0.00 0.00
12:53 pm 12:53 Mostly Sunny 80 26.7 57 13.9 45 45 SSW 16 26 30.06 1018 10 16 0.00 0.00
1:53 pm 13:53 Sunny 80 26.7 55 12.8 42 42 SSW 15 24 30.04 1017 10 16 0.00 0.00
2:53 pm 14:53 Sunny 81 27.2 55 12.8 41 41 SSW 15 24 30.03 1017 10 16 0.00 0.00
3:53 pm 15:53 Sunny 81 27.2 53 11.7 38 38 SSW 17 28 30.01 1016 10 16 0.00 0.00
4:53 pm 16:53 Sunny 82 27.8 53 11.7 37 37 SSW 16 26 29.98 1015 10 16 0.00 0.00
5:53 pm 17:53 Sunny 82 27.8 51 10.6 34 34 S 15 24 29.98 1015 10 16 0.00 0.00
6:53 pm 18:53 Sunny 81 27.2 53 11.7 38 38 SSW 14 22 29.97 1015 10 16 0.00 0.00
7:53 pm 19:53 Sunny 79 26.1 53 11.7 41 41 SSW 10 17 29.98 1015 10 16 0.00 0.00
8:53 pm 20:53 Mostly Cloudy 75 23.9 53 11.7 46 46 SSW 7 11 29.99 1016 10 16 0.00 0.00
9:53 pm 21:53 Clear 71 21.7 52 11.1 51 51 S 6 9 29.99 1016 10 16 0.00 0.00
10:53 pm 22:53 Clear 73 22.8 53 11.7 50 50 S 7 11 29.98 1015 10 16 0.00 0.00
11:53 pm 23:53 Clear 70 21.1 53 11.7 55 55 SSW 7 11 29.98 1015 10 16 0.00 0.00

Powered by AerisWeather